Regional Weather Roundup
Issued by NWS Green Bay, WI

Home | Current Version | Previous Version | Text Only | Print | Product List | Glossary On
Versions: 1 2 3 4 5 6 7 8 9 10 11 12 13 14 15 16 17 18 19 20 21 22 23 24 25 26 27 28 29 30 31 32 33 34 35 36 37 38 39 40 41 42 43 44 45 46 47 48 49 50
000
ASUS43 KGRB 271111
RWRGRB

NORTH-CENTRAL AND NORTHEAST WISCONSIN REGIONAL WEATHER ROUNDUP
NATIONAL WEATHER SERVICE GREEN BAY WI
600 AM CDT SAT AUG 27 2016

WIZ005-009-010>012-018-019-271200-
NORTH CENTRAL WISCONSIN

CITY           SKY/WX    TMP DP  RH WIND       PRES   REMARKS
IRONWOOD       CLOUDY    52  51  97 CALM      30.14S
MANITOWISH WTR CLOUDY    52  52 100 CALM      30.14S
ARBOR VITAE    CLOUDY    57  53  86 SE5       30.14F
EAGLE RIVER    CLOUDY    53  53 100 CALM      30.15R
LAND O LAKES   CLOUDY    51  51 100 CALM      30.17R
RHINELANDER    CLOUDY    57  55  93 SE5       30.16S
PHILLIPS       CLOUDY    55  53  95 E3        30.13S
ANTIGO         CLOUDY    57  56  99 CALM      30.15S
TOMAHAWK       CLOUDY    55  53  92 CALM      30.15S
MERRILL        CLOUDY    57  57 100 E5        30.14F
$$

WIZ013-073-271200-
NORTHEAST WISCONSIN

CITY           SKY/WX    TMP DP  RH WIND       PRES   REMARKS
IRON MOUNTAIN  CLOUDY    57  54  89 CALM      30.15S
MARINETTE      LGT RAIN N/A N/A N/A CALM      30.15F
OCONTO         CLOUDY    61  60  97 CALM      30.13F
$$

WIZ017-030-035>037-045-271200-
CENTRAL WISCONSIN

CITY           SKY/WX    TMP DP  RH WIND       PRES   REMARKS
MEDFORD        CLOUDY    57  57 100 SE3       30.12S
WAUSAU         CLOUDY    59  57  93 E5        30.12F
MOSINEE        CLOUDY    57  57 100 E6        30.14S
MARSHFIELD     CLOUDY    59  56  89 E5        30.11F
WISC RAPIDS    CLOUDY    59  58  96 E7        30.13S
STEVENS POINT  CLOUDY    58  57  99 NE3       30.13F
WAUPACA        CLOUDY    62  62  99 CALM      30.13S
SHAWANO        CLOUDY    63  60  88 E3        30.14S
CLINTONVILLE   CLOUDY    61  59  94 CALM      30.13F
WAUTOMA        LGT RAIN  60  59  96 N5        30.12S
$$

WIZ038-039-048-051-271200-
FOX VALLEY

CITY           SKY/WX    TMP DP  RH WIND       PRES   REMARKS
NWS GREEN BAY  LGT RAIN  62  62 100 NE6       30.13S
APPLETON       CLOUDY    63  57  82 E7        30.11F
OSHKOSH        CLOUDY    63  60  90 NE6       30.11S
FOND DU LAC    LGT RAIN  62  60  93 E6        30.11F
$$

WIZ022-050-052-271200-
EAST CENTRAL WISCONSIN

CITY           SKY/WX    TMP DP  RH WIND       PRES   REMARKS
EPHRAIM        LGT RAIN  60  60  99 CALM      30.15F
WASHINGTON ISL NOT AVBL
STURGEON BAY   LGT RAIN  64  62  93 CALM      30.16F
MANITOWOC      LGT RAIN  62  59  90 NE3       30.14F
SHEBOYGAN      LGT RAIN  61  59  93 NE7       30.12F
$$

LMZ563-521-522-541>543-271200-
LAKESHORE

STATION/POSITION TIME  TEMP    WIND        PRES    VSBY  WAVE
                       AIR SEA DIR/SP/G                  HT/PER
                 (UTC) (F)     (DEG/KT/KT) (MB)    (MI)  (FT/S)
SHEBOYGAN LKSHOR 1100   60      30/  5/  5 1019.9F
KEWAUNEE LKSHORE 1000   63     280/  3/  4 1020.2R
NORTHPORT PIER   1000   64     260/  4/ 16 1021.0R
N MID LAKE BUOY  1050   69 70  230/  4/  4 1020.9R         1
S GREEN BAY BUOY 1030   67 72   30/ 10/ 12 1019.9
SISTER BAY LKSHO 1037   63        CALM       N/A
CHAMBERS ISLAND  1000   63     170/  2/  3 1021.0R
MENOMINEE LKSHOR 1000   63     300/  7/  8 1020.3R
$$



USA.gov is the U.S. government's official web portal to all federal, state and local government web resources and services.